Location: Bli��� Lhota
(48.7570°N, 14.0120°E)
Time: 06:06:03
(UTC+00:00)

ATLAS 2AS CENTAUR R/B - Pass Details

Date: 18 September 2020
Orbit: 939 x 1273 km, 63.7° (Epoch: 19 October)

Event Time Altitude Azimuth Distance (km) Brightness Sun altitude
Rises 19:13:04 0° 182° (S) 4,181 5.6 -20.3°
Reaches altitude 10° 19:16:06 10° 174° (S) 3,240 4.9 -20.8°
Enters shadow 19:16:57 13° 170° (S) 3,000 4.7 -20.9°
Exits shadow 19:24:45 31° 89° (E) 2,080 3.7 -22.0°
Drops below altitude 10° 19:29:51 10° 53° (NE) 3,247 5.0 -22.8°
Sets 19:32:54 0° 45° (NE) 4,192 5.7 -23.2°
